Wind_Speed
18 22 19 18 20 21 21 20 20 19 19 17 17 17 17 18 18 19 22 21 23 21 20 24 24 23 21 21 20 19 21 20 21 21 21 22 21 21 22 23 22 20 21
29 23 20 21 22 22 22 22 23 22 22 21 20 19 17 18 20 20 20 21 20 19 18 19 19 24 21 20 18 18 20 20 18 18 19 19 19 18 18 18 19 19 20
31 23 21 24 26 23 24 24 23 24 24 24 24 23 21 19 19 21 22 20 19 17 17 17 16 18 18 17 17 16 14 17 19 18 17 17 17 17 17 16 17 17 17
31 25 24 26 26 24 24 24 23 21 23 24 25 25 25 25 23 20 20 21 22 20 17 17 15 16 13 14 15 16 13 13 15 16 16 16 16 15 15 15 16 16 16
29 26 25 26 25 25 23 23 22 21 22 22 22 22 23 22 23 23 24 24 23 19 18 16 14 13 12 14 14 17 17 19 18 16 15 16 16 14 15 15 16 17 16
27 26 25 24 23 23 23 21 19 19 19 19 20 20 21 20 19 18 17 19 20 19 17 16 15 14 15 14 15 18 19 21 18 17 16 15 14 13 14 15 15 16 17
28 26 23 23 22 22 22 21 20 17 18 18 19 18 19 18 16 17 18 17 17 17 16 15 14 14 14 14 15 18 18 19 17 16 15 14 12 13 13 13 15 14 15
28 24 22 22 22 23 22 21 21 22 21 20 20 21 20 20 19 18 17 17 16 16 14 13 14 17 14 15 14 16 17 17 18 19 18 15 11 12 12 13 13 13 13
26 25 23 23 23 23 24 22 21 21 24 23 23 22 21 20 18 17 16 16 16 16 14 14 14 15 15 16 16 16 15 16 18 19 18 19 13 12 13 12 11 11 10
25 24 25 26 26 25 24 23 24 27 28 27 25 24 22 19 17 17 16 15 15 15 15 15 15 15 15 17 17 16 14 14 15 15 14 16 13 16 14 14 12 9 9
25 26 27 30 29 28 30 33 34 31 29 27 23 18 17 16 18 18 16 16 16 15 15 15 14 16 15 14 16 14 11 12 11 11 10 11 9 11 11 12 11 10 10
26 28 32 34 35 36 36 35 32 29 23 19 14 11 15 17 18 19 17 16 15 15 14 14 14 15 14 15 15 15 13 12 11 13 8 6 8 7 6 8 9 10 9
26 29 33 39 39 37 36 33 29 25 21 14 13 15 16 17 17 16 15 13 14 12 13 14 15 15 15 15 15 16 17 16 19 22 24 14 7 6 5 6 7 8 9
26 29 31 38 39 36 35 30 27 23 17 15 15 15 16 17 15 15 14 14 13 14 15 13 14 14 16 16 16 17 17 19 21 25 27 24 23 24 17 9 6 6 9
25 29 34 35 37 35 33 29 25 21 17 16 16 15 15 15 14 14 14 13 14 14 14 16 16 16 15 15 14 16 18 19 21 21 23 26 24 24 23 22 20 19 19
27 30 35 33 35 34 31 28 24 20 18 17 17 15 14 13 13 13 13 13 13 13 14 15 16 17 18 17 17 15 15 15 15 13 13 17 22 24 22 22 22 20 20
30 34 35 34 33 31 30 26 23 21 19 18 18 16 15 14 14 14 14 14 14 13 14 15 16 17 18 17 16 14 13 12 11 8 6 7 9 16 19 20 21 20 19
28 33 34 32 31 28 27 25 24 22 20 18 18 17 16 15 14 15 15 15 15 15 15 16 17 18 18 17 17 14 12 9 8 7 5 3 3 4 6 13 17 17 18
31 30 31 31 30 27 25 24 23 21 20 19 17 17 16 15 14 14 15 16 15 16 16 17 18 17 19 19 17 15 13 11 9 7 6 5 4 3 2 7 7 11 14
33 33 31 30 29 28 27 25 22 21 19 18 17 16 16 15 14 14 15 16 15 17 17 18 20 19 20 21 21 18 15 12 11 10 9 8 7 6 4 3 3 11 16
31 30 31 30 29 30 29 29 25 23 21 19 16 15 14 14 14 14 15 15 15 16 18 19 20 22 22 22 17 17 15 11 10 9 9 9 9 9 7 5 5 5 7
33 33 31 32 33 30 30 26 24 25 19 18 16 14 13 14 14 14 15 16 15 17 18 19 21 23 21 14 5 7 2 4 8 8 7 7 8 7 8 7 7 7 7
31 34 34 33 34 33 30 25 22 20 20 19 17 16 14 13 13 13 13 14 15 14 16 15 16 16 11 8 13 3 2 3 4 4 5 5 5 6 8 7 6 7 6
27 31 32 32 33 31 30 27 29 27 24 22 21 18 16 13 13 13 13 13 13 12 12 12 11 11 13 13 8 5 4 8 3 2 3 4 5 6 6 6 5 6 6
27 29 30 29 29 28 26 27 29 27 23 24 22 20 19 16 14 13 13 12 12 11 11 10 11 10 10 9 5 6 8 9 6 3 2 3 5 5 6 5 4 4 5
23 27 28 28 26 25 24 25 26 28 27 28 25 22 19 17 16 13 13 12 12 12 11 11 11 10 9 9 8 6 5 2 2 3 4 2 4 4 3 4 5 4 4
Wind_Direction
173 152 146 149 140 140 142 141 134 130 129 128 123 121 121 123 127 128 127 123 109 101 96 95 93 90 85 84 86 89 88 90 90 90 95 92 93 93 97 99 97 95 95
156 149 149 150 141 137 136 136 132 128 128 122 117 117 118 127 127 128 126 117 110 104 97 92 93 96 97 90 84 88 95 91 93 94 95 91 87 89 92 96 97 95 91
154 151 150 142 134 132 130 127 129 125 120 115 110 108 108 117 124 127 124 117 108 103 98 100 100 98 101 108 99 94 104 98 96 92 91 91 91 88 90 91 93 92 96
153 154 155 145 141 136 134 129 128 124 121 114 113 107 105 104 108 112 118 119 111 108 112 105 99 115 116 113 101 96 94 122 107 99 99 94 91 88 90 88 91 93 93
158 156 154 148 142 142 143 137 132 131 123 120 116 113 111 108 107 109 107 110 117 124 123 121 116 107 122 117 102 105 105 124 120 109 102 98 97 94 96 92 93 96 96
160 160 157 153 148 144 143 146 142 133 125 124 122 120 113 109 109 123 121 121 120 124 120 118 124 115 129 123 114 108 112 125 119 107 102 99 96 98 100 97 93 103 100
164 164 160 155 155 154 151 147 143 140 134 130 125 120 118 116 126 124 122 121 116 117 106 115 124 124 122 118 121 117 120 122 116 108 107 107 106 103 106 106 102 102 105
168 165 167 162 159 154 149 150 149 142 136 129 121 120 118 117 119 121 125 118 116 111 120 129 136 129 134 130 124 121 116 117 117 107 95 97 117 115 110 112 111 110 110
169 169 164 162 157 154 153 152 148 141 133 128 119 115 115 117 120 120 113 112 107 109 111 127 131 143 135 144 136 129 127 118 117 110 99 76 83 106 114 111 107 110 119
173 171 166 161 155 153 152 151 143 133 126 123 119 122 125 123 116 111 113 111 107 104 103 109 119 131 143 155 146 133 129 122 120 116 112 78 79 77 90 97 108 100 103
173 175 165 160 158 150 145 138 133 122 117 129 146 147 145 143 133 122 111 107 106 104 105 106 114 131 151 158 156 147 133 117 120 116 115 100 81 80 86 95 98 105 112
165 163 167 160 158 151 146 148 147 150 149 146 154 170 146 139 133 123 112 105 105 107 104 112 127 135 146 147 145 145 132 126 116 102 89 116 106 98 102 99 91 95 114
165 163 163 158 159 161 157 156 153 153 152 155 160 159 153 145 137 135 132 124 126 122 126 123 126 131 134 141 145 139 133 129 119 103 85 84 79 70 122 114 116 101 100
165 164 160 163 162 162 161 159 158 159 158 155 163 162 158 150 145 140 136 132 131 127 129 134 135 131 133 137 138 138 134 126 120 114 108 86 74 69 107 88 110 129 126
165 165 169 167 166 167 166 164 162 163 162 161 165 167 170 164 154 148 139 137 134 133 131 129 132 133 134 138 137 136 131 132 129 121 114 97 72 74 75 74 79 85 92
171 171 176 175 170 171 170 169 166 164 164 166 167 167 170 168 162 157 150 144 138 136 132 130 129 133 131 136 133 135 135 133 134 135 123 110 105 84 71 65 69 66 70
175 175 176 178 175 173 170 169 167 165 165 166 166 169 172 175 169 162 156 152 149 144 137 133 129 129 129 131 126 128 131 133 136 131 125 120 100 91 75 63 60 62 63
169 172 175 177 176 171 171 169 167 164 165 164 165 167 171 172 167 160 155 151 148 149 148 139 135 129 124 126 123 119 125 129 129 133 144 142 110 97 80 70 63 59 59
170 166 168 178 177 171 168 168 163 161 164 165 167 170 172 170 166 164 158 152 150 149 149 146 138 139 129 121 115 112 106 105 105 111 117 117 117 122 121 60 66 62 61
172 171 171 170 176 171 165 161 159 159 159 161 166 170 170 169 168 167 159 154 158 156 149 151 144 138 131 126 114 104 97 94 96 96 99 100 100 97 84 79 78 71 68
164 162 165 161 168 171 162 155 153 153 157 157 165 168 169 168 168 167 160 157 157 159 151 155 147 144 135 135 114 100 95 96 97 90 90 91 93 87 87 83 85 88 86
160 162 163 169 169 172 168 164 160 160 159 155 156 158 164 164 164 161 160 157 157 155 155 157 153 145 148 163 143 125 126 98 93 99 94 89 86 82 82 76 77 83 87
154 163 165 170 172 174 173 168 162 158 148 146 153 155 157 159 158 159 158 156 156 160 157 163 173 169 153 150 171 148 129 172 134 117 111 99 93 81 83 77 72 74 72
150 164 170 174 174 176 177 175 168 160 155 164 159 157 158 160 157 157 154 151 149 151 149 154 165 183 174 149 122 101 126 136 149 124 142 133 113 98 83 83 82 78 72
160 165 168 169 170 172 175 177 174 170 169 159 158 155 152 156 157 155 154 151 148 148 143 139 141 148 160 166 169 135 106 96 109 135 150 152 137 120 95 79 104 98 82
159 161 164 166 170 173 177 180 181 173 163 160 160 158 155 154 153 155 154 152 145 142 138 137 136 133 129 126 129 137 137 109 115 103 107 119 140 140 117 107 112 102 85
Height
783 786 789 791 793 795 797 799 800 802 803 806 807 808 811 812 814 816 818 819 819 821 824 822 824 826 829 830 831 831 831 832 832 832 833 833 833 834 834 835 836 837 837
781 786 789 791 793 796 798 800 801 803 804 806 808 810 811 814 815 817 819 820 822 824 826 826 827 827 829 831 833 833 834 834 835 836 836 837 837 837 837 838 838 839 839
781 786 790 792 794 797 799 801 803 804 805 807 809 811 813 815 817 818 820 822 824 826 828 828 829 828 831 832 833 835 836 837 838 838 839 839 840 841 840 841 841 841 842
781 786 790 792 795 798 800 803 805 806 808 809 812 813 815 816 819 821 822 822 826 828 829 831 831 831 833 834 835 836 836 838 840 841 841 842 842 843 844 844 844 843 845
782 785 789 792 795 798 801 804 807 808 810 812 813 815 817 819 821 823 825 827 825 828 831 832 833 834 835 837 838 837 838 839 841 843 843 844 845 845 845 846 846 846 846
784 787 789 793 796 799 802 805 808 810 811 813 816 817 819 821 823 825 827 829 831 832 834 833 834 836 838 838 839 840 841 842 843 845 845 846 847 847 847 848 848 848 849
785 788 791 793 797 800 803 806 808 811 814 816 817 819 820 823 825 827 829 831 832 833 833 834 836 837 839 840 841 841 843 844 845 846 848 848 849 849 849 850 851 851 851
785 789 792 794 797 800 804 807 810 812 815 818 820 821 823 824 827 829 830 832 833 833 833 835 836 837 840 840 842 843 845 847 846 848 850 849 850 850 850 851 852 853 853
786 789 792 795 797 800 804 808 810 813 815 818 821 822 825 826 828 830 831 832 834 834 835 835 836 839 841 841 843 845 847 849 848 849 852 851 852 851 852 852 854 855 856
787 790 792 794 797 800 804 808 811 813 815 818 820 823 825 828 830 830 831 833 833 834 835 836 838 840 842 842 844 847 848 849 851 851 853 854 855 854 855 854 855 856 858
786 789 791 793 797 800 803 806 808 811 813 817 822 826 828 829 830 832 832 834 835 837 837 838 839 841 842 844 847 849 849 851 852 853 855 856 858 857 859 857 856 857 859
783 786 789 792 795 798 801 805 809 813 817 821 826 829 830 831 832 833 835 835 836 837 838 838 839 841 843 844 847 849 850 853 854 856 857 858 859 859 860 860 860 859 859
783 785 788 789 794 798 803 806 810 814 817 822 826 829 831 832 833 834 835 836 836 837 838 839 840 843 844 846 849 849 853 855 856 857 860 862 859 860 860 861 861 861 861
782 786 789 791 794 799 803 808 812 815 818 821 827 830 832 833 834 835 837 838 840 840 840 841 842 844 847 850 851 851 854 855 857 857 858 861 861 861 861 862 863 862 863
782 785 789 791 794 799 804 808 812 816 820 822 827 831 833 834 835 837 838 840 841 842 843 843 844 846 848 850 852 854 854 857 858 859 859 859 863 863 863 864 865 865 865
781 785 788 793 796 800 804 809 813 817 821 824 828 831 834 835 837 838 839 840 842 844 844 845 846 848 850 852 853 855 858 859 860 862 862 861 863 863 865 866 867 867 867
777 782 787 792 796 800 805 810 814 818 822 825 828 831 834 836 837 839 839 841 843 844 845 847 847 848 850 851 853 856 858 861 862 863 864 864 866 864 866 866 868 870 870
775 781 786 791 797 801 805 810 815 819 823 826 830 833 835 837 838 839 840 842 844 846 847 848 850 851 853 855 856 859 861 863 864 865 865 867 869 868 869 868 869 870 872
774 781 786 791 796 802 807 811 816 821 825 827 831 834 836 838 840 841 842 843 845 847 848 850 851 853 855 858 860 862 864 865 866 867 868 869 869 871 870 870 870 872 872
774 781 787 792 797 802 807 813 818 823 826 829 832 836 838 840 841 843 843 844 847 849 850 852 853 855 857 859 862 865 867 869 870 871 871 871 871 871 871 871 872 873 873
776 781 786 791 797 802 808 813 820 824 828 831 834 837 840 841 843 844 845 847 849 850 851 853 855 856 859 861 862 868 870 871 872 873 873 872 872 872 872 874 874 874 875
773 780 785 791 797 803 809 814 818 823 829 832 836 839 842 843 844 846 847 848 850 851 853 855 855 856 859 861 862 865 871 875 873 874 874 874 874 874 873 874 875 875 875
774 780 785 790 796 802 808 813 819 825 830 833 837 840 843 845 846 848 849 850 851 853 854 855 857 857 858 861 861 862 869 870 873 875 875 875 875 875 874 875 875 876 876
777 782 786 792 797 802 807 812 816 820 826 832 836 840 844 846 848 849 851 852 853 854 855 856 857 858 858 860 862 862 861 863 869 876 876 876 876 876 876 876 877 878 878
780 784 788 794 800 804 808 812 815 821 826 832 837 841 844 847 849 851 853 854 854 855 856 857 858 859 860 861 862 862 863 863 865 867 875 876 877 877 878 878 879 880 880
783 786 791 795 801 806 810 813 816 820 825 831 836 840 844 847 850 852 854 855 856 857 858 858 860 860 862 863 863 863 864 865 867 867 872 875 877 878 879 879 880 881 881